Location: Unspecified
(40.7945°N, 111.1337°W)
Time: 16:28:15
(UTC-06:00)

Cosmos 1674 - Visible Passes

Search period start: 25 June 2017 00:00
Search period end: 05 July 2017 00:00
Orbit: 497 x 524 km, 82.5° (Epoch: 25 June)

Date Brightness Start Highest point End Pass type
(mag) Time Alt. Az. Time Alt. Az. Time Alt. Az.
25 Jun 3.7 21:31:50 10° SSE 21:35:02 27° E 21:38:15 10° NNE visible
25 Jun 5.4 23:08:05 10° WSW 23:10:39 17° WNW 23:13:14 10° NNW visible
26 Jun 5.1 22:51:02 10° SW 22:54:00 22° WNW 22:56:58 10° NNW visible
27 Jun 4.7 22:34:07 10° SW 22:37:21 27° WNW 22:40:36 10° NNW visible
28 Jun 4.3 22:17:16 10° SW 22:20:43 35° WNW 22:24:11 10° N visible
29 Jun 3.8 22:00:30 10° SSW 22:04:06 45° W 22:07:43 10° N visible
30 Jun 3.2 21:43:47 10° SSW 21:47:29 60° W 21:51:11 10° N visible
01 Jul 2.8 21:27:09 10° S 21:30:53 80° W 21:34:37 10° N visible
04 Jul 6.0 22:15:54 10° W 22:17:00 11° WNW 22:18:06 10° NW visible
